Weather Roundup
Issued by NWS Chicago, IL

Home | Current Version | Previous Version | Text Only | Print | Product List | Glossary Off
Versions: 1 2 3 4 5 6 7 8 9 10 11 12 13 14 15 16 17 18 19 20 21 22 23 24 25 26 27 28 29 30 31 32 33 34 35 36 37 38 39 40 41 42 43 44 45 46 47 48 49 50

000
NZUS59 KLOT 040110
HRRLOT

CHICAGO AREA WEATHER ROUNDUP
NATIONAL WEATHER SERVICE CHICAGO/ROMEOVILLE IL
700 PM CST TUE MAR 03 2015

NOTE: "FAIR" INDICATES FEW OR NO CLOUDS BELOW 12,000 FEET WITH NO
SIGNIFICANT WEATHER AND/OR OBSTRUCTIONS TO VISIBILITY.

* THESE STATIONS ARE NOT UNDER NWS QUALITY CONTROL. THEY ALSO MAY NOT
  REPORT WEATHER SUCH AS PRECIPITATION OR FOG.

ILZ005-006-012>014-019>023-040200-
NORTHEAST ILLINOIS

CITY           SKY/WX    TMP DP  RH WIND       PRES   REMARKS
OHARE          CLOUDY    33  28  81 W12       29.75R WCI  24
MIDWAY         CLOUDY    36  29  75 W10       29.77R
AURORA         CLOUDY    34  28  79 W13       29.78R WCI  25
LANSING*       CLOUDY    35  30  82 W13       29.78R WCI  26
JOLIET*        CLOUDY    33  30  88 W7        29.79R WCI  27
WAUKEGAN       CLOUDY    32  25  75 W7        29.74R WCI  26
DUPAGE AIRPORT CLOUDY    33  27  78 W10       29.77R WCI  25
WHEELING       CLOUDY    33  27  78 W12       29.77R WCI  24
KANKAKEE*      CLOUDY    34  32  94 W9        29.80R WCI  26
MORRIS*        CLOUDY    34  32  93 W12       29.78R WCI  25
LEWIS AIRPORT* CLOUDY    33  30  86 W10       29.78R WCI  25
NORTHERLY IS     N/A     35  28  76 W7          N/A  WCI  29
$$

WIZ051-052-058>065-066-070>072-040200-
SOUTHEAST WISCONSIN

CITY           SKY/WX    TMP DP  RH WIND       PRES   REMARKS
MILWAUKEE      MOCLDY    31  22  69 W9        29.73R WCI  23
KENOSHA*       CLOUDY    31  24  75 W12       29.73R WCI  22
RACINE*        CLOUDY    31  23  72 W9        29.75R WCI  23
BURLINGTON     CLOUDY    29  22  76 W10G16    29.76R WCI  19
WAUKESHA       CLOUDY    28  21  74 W12G21    29.73R WCI  18
WEST BEND      CLOUDY    28  21  74 W12G23    29.70R WCI  18
$$

INZ001>003-010>013-019-020-040200-
NORTHWEST INDIANA

CITY           SKY/WX    TMP DP  RH WIND       PRES   REMARKS
GARY*          CLOUDY    36  27  69 W12G28    29.79R
MICHIGAN CITY* NOT AVBL
RENSSELAER*    NOT AVBL
VALPARAISO     CLOUDY    34  30  85 W10       29.78R WCI  26
$$

LMZ740>746-040200-
SOUTHERN LAKE MICHIGAN

STATION/POSITION TIME  SKY/WX   TEMP WIND        PRES    VSBY
                                AIR  DIR/SP/G
                 (UTC)          (F)  (DEG/KT/KT) (MB)    (MI)
HARRISON CRIB    0100            34  280/ 12/ 15   N/A
BURNHAM HARBOR   0100            35  280/  7/ 16   N/A
CALUMET HARBOR   0100            35  260/  6/ 12 1006.9S
BURNS HARBOR     NOT AVBL
MICHIGAN CITY    0100            33  240/ 14/ 17   N/A
$$

ABBREVIATIONS USED IN REMARKS
   TC - TEMPERATURE IN CELSIUS
  WCI - WIND CHILL INDEX
   HX - HEAT INDEX
  VSB - VISIBILITY
$$


USA.gov is the U.S. government's official web portal to all federal, state and local government web resources and services.